CRC

Crooked River Challenge - Loft fly and trap train

Station: Inventory - T Race

Distance: 0.1 Miles    

Release: 25-Mar-2020 09:45

Weather Release:    Arrival:

Wind at Release:     Wind at Arrival:

Temp at Release: °    Temp at Arrival: °

Lofts: 135

Birds: 708

Clocked: 403

Good Luck to Everyone!
Drops Pos Breeder Pigeon Name Color Sex Ent Arrival Speed To Win Elg PdOpB
1 Emerson/Donnelly - SC 0333-AU20-MERL BBSP H 1 11:00:37.74 2.327 00:00:00 Yes
2 Andy Owen - GA 0012-AU20-OWEN BB H 1 11:00:40.69 2.326 00:00:02 Yes
3 The X-Loft - IN 0093-AU20-XLFT BBWF C 1 11:00:48.97 2.321 00:00:12 Yes
4 Carlitos El Animal & Dammay Matanza - FL 0016-AU20-ANIM New soft 934 x 990🌹 BB H 1 11:00:51.39 2.320 00:00:14 Yes
5 A-Lo-Loft - NY 0014-AU20-ALOL ☯️☯️☯️ BC H 1 11:00:59.32 2.316 00:00:22 Yes
6 Swampdog DLG - MS 0096-IF20-SDOG 211x245 BBSP H 1 11:01:26.75 2.302 00:00:49 Yes
7 Steven Loft - TX 0199-AU20-CCL BBWF C 1 11:01:34.65 2.298 00:00:57 Yes
8 Swampdog DLG - MS 0097-IF20-SDOG 211x245 BB H 2 11:01:40.05 2.296 00:01:01 Yes
9 Andrew E. Skwiat - IN 0013-AU20-ANDY BBWF H 1 11:01:48.39 2.291 00:01:11 Yes
9 Peters - GA 1960-AU20-NA The Duke BB C 1 11:01:48.68 2.291 00:01:11 Yes
11 Yendez Loft - TX 0510-AU20-YEND YENDEZ 510 BB C 1 11:01:54.27 2.289 00:01:15 Yes
12 Wolf Den - IL 0180-AU20-WOLF BB H 1 11:01:58.56 2.286 00:01:21 Yes
13 Andrew E. Skwiat - IN 0001-AU20-ANDY BB C 2 11:02:00.52 2.285 00:01:23 Yes
14 Yendez Loft - TX 0544-AU20-YEND YENDEZ 544 BB H 2 11:02:10.47 2.281 00:01:32 Missing
15 Amer Loft - GA 0087-IF20-AFL 698 GFL x 848 GFL BB C 1 11:02:11.03 2.280 00:01:34 Yes
16 Zheng Family Loft - NY 0991-AU20-ZFL Lamborghini 991 BBWF H 1 11:02:13.14 2.279 00:01:36 Yes
16 Yendez Loft - TX 0557-AU20-YEND YENDEZ 557 BB H 3 11:02:13.68 2.279 00:01:36 Yes
18 Lin Family Loft - GA 8982-AU20-LIN 林 Lin 1158 X Tent 8072 BB H 1 11:02:16.64 2.278 00:01:38 Yes
19 Wolf Den - IL 0112-AU20-WOLF BB H 2 11:02:20.05 2.276 00:01:42 Yes
19 Amer Loft - GA 0024-IF20-AFL 698 GFL x 848 GFL BB H 2 11:02:20.14 2.276 00:01:42 Yes
21 Peach Classic - GA 72528-IF20-E BC H 1 11:02:22.27 2.275 00:01:44 Yes
22 AFL - GA 0019-IF20-AFL 339 AFL x 782 GFL BB H 1 11:02:23.46 2.274 00:01:46 Yes
23 Amer Loft - GA 0018-IF20-AFL 189 AFL x 9 AFL BB H 3 11:02:29.88 2.271 00:01:52 Yes
24 Zheng Family Loft - NY 0995-AU20-ZFL Bugatti 995 BC C 2 11:02:31.56 2.270 00:01:54 Yes
25 Family Loft - IN 0007-AU20-FAM BBWF H 1 11:02:33.03 2.269 00:01:56 Yes
26 AFL - GA 0042-IF20-AFL 130 AFL x 914 GFL BB C 2 11:02:37.02 2.268 00:01:58 Yes
27 Steven Loft - TX 0188-AU20-CCL BB C 2 11:02:40.00 2.266 00:02:02 Yes
28 Wtj Loft - TX 0156-AU20-WTJ BCWF H 1 11:02:44.95 2.264 00:02:06 Yes
29 A P C Loft - TX 20019-AU20-APC BC H 1 11:02:50.51 2.261 00:02:12 Yes
30 Zhengloft - FL 4835-AU20-VITA BC C 1 11:02:52.63 2.260 00:02:15 Yes
31 R & D Racing 2 - ON 4405-AU20-AA BB C 1 11:02:59.30 2.257 00:02:21 Yes
32 Sam Haslem - UT 0108-AU20-SAM BB H 1 11:03:03.90 2.255 00:02:25 Yes
33 Thunder Birds/Rodriguez Breeding Loft - TX 5459-AU20-JEDD 500-383 BLK H 1 11:03:12.82 2.250 00:02:35 Yes
33 Wtj Loft - TX 0059-AU20-GWC BB H 2 11:03:13.19 2.250 00:02:35 Yes
35 Amer Loft - GA 0012-IF20-AFL 697 GFL x 849 GFL BB H 4 11:03:15.68 2.249 00:02:37 Yes
36 Da-Dong - WI 2833-AU20-RAC BBWF C 1 11:03:32.39 2.241 00:02:54 Yes
36 Tyler Loft - TX 6186-AU20-ARPU BB H 1 11:03:32.93 2.241 00:02:54 Yes
38 Alaniz Loft 🇲🇽 - IL 0100-AU20-ALAN BB C 1 11:03:34.71 2.240 00:02:56 Yes
39 Rueter Family Loft - OR 4503-AU20-CORP BBWF C 1 11:03:35.84 2.239 00:02:58 Yes
40 Jimmy Zheng Loft - MS 0150-AU20-JZ BB H 1 11:03:37.69 2.238 00:03:00 Yes
40 Irishsyndicatelofts - AZ 1025-AU20-IRIS BC C 1 11:03:39.02 2.238 00:03:00 Yes
42 Y Mtn Loft - TN 26626-AU20-YMTN BB H 1 11:03:40.06 2.237 00:03:03 Yes
43 B L U E M E G A N T I N L O F T - CA 0842-AU20-SFR BB H 1 11:03:41.99 2.236 00:03:05 Yes
44 Lefkos Pyrgos - MA 0008-AU20-LEFK BBSP H 1 11:03:46.15 2.234 00:03:09 Yes
45 Keyways - OR 0017-AU20-KEYS 1306 X 862 BB H 1 11:03:56.61 2.229 00:03:20 Yes
46 Andrew E. Skwiat - IN 0005-AU20-ANDY BBWF H 3 11:04:01.62 2.227 00:03:24 Yes
47 Alas De Oro - NV 25654-AU20-JEDD BC C 1 11:04:06.03 2.225 00:03:28 Yes
48 Lefkos Pyrgos - MA 0004-AU20-LEFK BB H 2 11:04:08.11 2.224 00:03:30 Yes
49 Wtj Loft - TX 0756-AU20-GSWC BC H 3 11:04:10.41 2.223 00:03:32 Yes
50 Amer Loft - GA 0022-IF20-AFL 163 AFL x 54 AFL BB C 5 11:04:12.16 2.222 00:03:34 Yes
51 Kelly Ward - IN 0024-AU20-FAM BBT H 1 11:04:15.94 2.220 00:03:39 Yes
51 Carlitos El Animal & Dammay Matanza - FL 0036-AU20-ANIM Suave H 242 x 927 BBWF H 2 11:04:16.03 2.220 00:03:39 Yes
53 Swampdog DLG - MS 0084-IF20-SDOG 07x55 BB C 3 11:04:18.47 2.219 00:03:41 Yes
54 Sam Haslem - UT 0106-AU20-SAM BC H 2 11:04:31.71 2.213 00:03:54 Yes
55 Racing Pigeon Mall - WA 1005-AU20-RPM BC C 1 11:04:42.04 2.208 00:04:05 Yes
56 Zhengloft - FL 4844-AU20-VITA BC C 2 11:04:49.36 2.205 00:04:11 Missing
57 Swampdog DLG - MS 0098-IF20-SDOG 150x151 BBSP C 4 11:06:04.76 2.171 00:05:26 Yes
58 Swampdog DLG - MS 0094-IF20-SDOG 288x226 BB H 5 11:06:11.50 2.168 00:05:33 Yes
59 A-Lo-Loft - NY 0015-AU20-ALOL ☯️☯️☯️ BB H 2 11:06:20.58 2.164 00:05:42 Missing
60 Andrew E. Skwiat - IN 0035-AU20-ANDY BBWF H 4 11:06:45.68 2.153 00:06:07 Yes
61 Amer Loft - GA 0081-IF20-AFL 332 AFL x 26 AFL BBSP C 6 11:07:10.45 2.142 00:06:32 Yes
62 Ken Family Loft - FL 0517-AU20-XKL BC C 1 11:07:22.86 2.136 00:06:46 Yes
63 Andrew E. Skwiat - IN 0019-AU20-ANDY BB C 5 11:08:46.04 2.101 00:08:08 Yes
64 Amer Loft - GA 0084-IF20-AFL 332 AFL x 26 AFL BBSP H 7 11:08:56.04 2.097 00:08:18 Yes
65 Golden State Syndicate - CA 10391-AU20-FOYS PrettyBoy top pick!☯️ BB H 1 11:09:21.65 2.086 00:08:44 Yes
66 Tim Byers - OH 1503-AU20-BUCK BC H 1 11:09:24.71 2.085 00:08:47 Yes
67 Poorhouse Road Loft - VA 22504-AU20-ARPU BC C 1 11:09:26.23 2.084 00:08:49 Yes
68 Thunder Birds/Rodriguez Breeding Loft - TX 27771-AU20-ARPU Sure Shot! BC C 2 11:09:32.86 2.082 00:08:54 Yes
69 Swampdog DLG - MS 0088-IF20-SDOG 288x226 BB C 6 11:10:12.47 2.066 00:09:33 Yes
70 Ming Liang You - NY 37904-AU20-ARPU BBWF H 1 11:10:27.02 2.060 00:09:48 Yes
71 A P C Loft - TX 20020-AU20-APC BB C 2 11:10:40.46 2.054 00:10:03 Yes
72 Wolf Den - IL 0107-AU20-WOLF BB C 3 11:10:47.73 2.051 00:10:11 Yes
72 Adam Hajduga - IL 0019-AU20-HAJD BCWF H 2 11:10:48.86 2.051 00:10:11 Yes
72 Adam Hajduga - IL 0010-AU20-HAJD BC C 1 11:10:49.61 2.051 00:10:11 Yes
75 John Gutierrez - NM 0209-AU20-GUTZ BC H 1 11:10:54.03 2.049 00:10:16 Yes
76 Steven Loft - TX 0155-AU20-CCL BB C 3 11:11:04.59 2.045 00:10:26 Yes
77 Michael Kelly - CA 4105-AU20-ARC BB C 1 11:11:23.17 2.037 00:10:46 Yes
78 Andrew E. Skwiat - IN 0015-AU20-ANDY BB H 6 11:11:28.56 2.035 00:10:51 Yes
79 Bruce Daehn - FL 0404-AU20-NWFI BB H 1 11:11:45.14 2.029 00:11:07 Yes
80 Tim Byers - OH 1501-AU20-BUCK BC C 2 11:11:47.26 2.028 00:11:09 Yes
81 A P C Loft - TX 20006-AU20-APC BB C 3 11:11:52.27 2.026 00:11:14 Yes
81 Transilvania Loft - NV 0221-AU20-CIMP BB H 1 11:11:52.36 2.026 00:11:14 Yes
83 Lin Family Loft - GA 8979-AU20-LIN 林 Warrior X BELG 627880 BC H 2 11:11:58.80 2.023 00:11:22 Yes
83 A-Lo-Loft - NY 0005-AU20-ALOL ☯️☯️☯️ BB H 3 11:12:00.20 2.023 00:11:22 Yes
83 Andrew E. Skwiat - IN 0002-AU20-ANDY BB C 7 11:12:00.37 2.023 00:11:22 Yes
86 A-Lo-Loft - NY 0006-AU20-ALOL ☯️☯️☯️ BB C 4 11:12:06.44 2.020 00:11:30 Yes
87 Sherwood Loft - UT 0207-AU20-NEBO BB H 1 11:12:09.60 2.019 00:11:32 Yes
88 Amer Loft - GA 0014-IF20-AFL 697 GFL x 849 GFL BBWF C 8 11:12:16.36 2.017 00:11:37 Yes
89 Kolvenbag & Son - PA 1407-IF20-KOLV BB H 1 11:12:19.56 2.015 00:11:43 Yes
90 AFL - GA 0016-IF20-AFL 339 AFL x 782 GFL BB C 3 11:12:26.81 2.013 00:11:48 Yes
91 Lefkos Pyrgos - MA 0003-AU20-LEFK BB H 3 11:12:48.39 2.004 00:12:11 Yes
92 Genesis Syndicate Loft - AZ 0519-AU20-GEN BBSP C 1 11:12:58.10 2.001 00:12:19 Yes
93 Yendez Loft - TX 0520-AU20-YEND YENDEZ 520 BB H 4 11:13:16.15 1.994 00:12:38 Yes
94 Rueter Family Loft - OR 4509-AU20-CORP BB C 2 11:13:31.96 1.988 00:12:54 Yes
94 Marengo Creek Farms - AL 3601-AU20-MCF BB H 1 11:13:32.52 1.988 00:12:54 Yes
96 Andrew E. Skwiat - IN 0037-AU20-ANDY BB C 8 11:13:34.94 1.987 00:12:57 Yes
97 Alaniz Loft 🇲🇽 - IL 0093-AU20-ALAN BC H 2 11:13:46.46 1.983 00:13:07 Yes
98 Roby Family Loft - FL 0328-AU20-ROBY BB H 1 11:13:48.93 1.982 00:13:10 Yes
99 Dekeratry Loft - TX 2525-AU20-HOT GZ C 1 11:13:52.30 1.980 00:13:15 Yes
100 Kelly Ward - IN 0017-AU20-FAM BBSP C 2 11:14:12.76 1.973 00:13:34 Yes

There are 858 bird records

Note: These Race Results are unofficial and subject to change until verified by the Race Committee and declared final.